User: anonymous   Login
Location: Carella
(45.8167°N, 9.2667°E)
Time: 10:42:09
(UTC+00:00)
Language:

NOSS 3-3 (C) - Orbit

View from above orbital plane
View from above orbital plane
View from above satellite
View from above satellite

Ground track
Ground track

The orbit data is extracted from the following two-line orbital elements,

1 28541U 05004C   20188.89152538 0.00000000  00000-0  00000-0 0    02
2 28541  63.4166 222.6375 0365927 358.1576   1.8424 13.40800471    09
Epoch (UTC): 06 July 2020 21:23:47
Eccentricity: 0.0365927
inclination: 63.4166°
perigee height: 832 km
apogee height: 1380 km
right ascension of ascending node: 222.6375°
argument of perigee: 358.1576°
revolutions per day: 13.40800471
mean anomaly at epoch: 1.8424°
orbit number at epoch: 0

The dashed part of the orbit path shows where the satellite is in the earth's shadow,  

DLR